Theta_e
314 313 315 318 319 322 323 324 321 320 320 314 314 315 316 318 318 319 319 320 322 322 318 321 329 329 327 326 328 327 330 332 328 327 330 335 334 336 338 333 335 337 339 339 340 339 338 339 334 334 330 321 320 319 322 328 332 332 332 331 331 331 332 334 335 335 337 338 338 337 335 332 333 335 335 334 333 333 332 331 332 332 332 332 331 330 330 330 330 329 329 329 329 330 330 330 330
314 313 316 321 321 322 323 323 320 317 315 312 315 316 316 319 319 321 321 320 322 320 318 324 329 326 324 324 325 327 331 330 328 332 334 334 334 337 336 334 338 338 339 339 340 340 339 338 332 331 327 320 320 318 320 327 332 333 332 331 331 332 332 333 335 335 336 337 338 337 335 333 332 334 334 333 333 331 331 331 332 332 332 332 332 330 329 330 330 329 329 329 329 328 329 329 329
314 315 318 321 322 323 324 323 319 314 313 311 314 318 317 319 320 320 320 320 321 320 322 326 326 324 323 323 324 325 331 328 329 335 335 335 336 337 336 336 339 339 339 339 340 340 340 337 332 332 328 321 320 320 319 321 328 333 333 332 332 332 333 334 334 334 335 336 337 335 334 332 332 332 332 332 332 330 331 331 331 332 333 333 333 331 329 329 329 329 329 328 329 328 329 328 328
315 317 320 322 323 324 324 323 321 315 312 310 312 317 318 319 321 318 319 321 322 321 324 326 326 324 323 324 325 325 331 331 332 336 335 336 337 337 336 337 338 338 339 339 340 340 340 337 333 333 327 322 321 320 320 318 323 331 333 332 332 332 334 335 333 333 334 336 336 335 334 331 329 329 331 332 331 330 330 330 330 332 332 332 331 331 330 329 329 329 329 329 329 329 329 328 328
317 318 319 322 324 323 323 322 321 317 312 312 313 316 319 319 319 318 320 322 321 319 321 324 327 325 325 327 326 326 332 332 334 336 336 337 337 337 336 337 338 338 339 340 340 339 340 337 334 333 326 322 322 320 321 319 320 326 331 332 332 332 333 333 331 332 333 336 336 335 333 331 328 328 331 331 330 330 329 330 331 332 332 331 330 331 331 330 328 329 330 329 329 329 329 328 328
319 319 318 320 321 320 321 318 317 316 315 316 315 316 318 317 318 320 321 321 319 317 318 321 324 324 327 328 327 329 333 333 334 336 337 337 336 336 336 337 338 338 339 340 340 339 339 337 335 332 325 324 322 321 322 320 318 321 326 330 332 331 333 332 329 331 333 335 335 334 333 331 328 327 330 330 329 329 329 330 331 331 331 331 331 331 331 329 329 328 329 329 329 328 328 328 328
320 321 321 320 319 320 320 317 315 317 315 315 316 316 316 316 319 321 321 320 318 317 314 317 322 323 326 327 330 332 332 334 334 336 336 337 336 336 337 337 338 338 339 340 339 340 339 337 337 332 326 325 323 323 322 322 319 317 321 327 332 332 333 334 331 331 333 334 334 334 332 330 326 325 329 329 329 328 328 329 329 331 331 332 332 332 330 329 329 328 329 329 328 328 328 328 328
320 321 322 322 320 320 320 317 317 318 314 312 314 315 316 316 318 321 321 320 319 317 315 318 320 321 324 324 331 333 331 334 334 336 336 336 336 336 337 337 338 338 339 339 340 340 339 337 338 334 327 326 325 324 323 323 320 317 319 325 331 332 333 334 332 331 334 334 334 334 331 329 325 324 329 329 328 329 328 329 330 331 331 333 332 331 329 328 329 328 328 328 328 328 327 327 327
319 320 321 322 320 319 317 317 317 316 315 314 314 314 315 315 317 321 320 319 316 316 318 320 318 317 323 324 330 333 332 334 333 335 336 336 336 336 337 337 338 338 339 339 339 340 339 338 338 336 328 326 326 325 324 323 322 319 318 321 329 333 332 333 330 329 332 334 333 333 331 329 325 323 328 329 328 329 329 329 329 331 331 331 332 330 329 328 329 328 328 328 327 327 327 327 327
318 319 321 322 319 316 314 315 317 316 316 315 315 314 315 314 316 320 320 319 315 316 318 319 317 316 322 325 328 332 333 334 333 336 336 336 336 336 337 337 338 337 338 338 339 339 338 338 337 337 330 326 326 325 326 324 323 321 318 319 326 331 331 332 329 326 331 333 331 332 331 330 326 323 328 328 328 329 328 328 328 330 330 330 330 329 328 328 328 328 328 327 327 326 327 327 327
319 319 320 320 316 314 313 314 316 317 316 315 315 314 314 314 316 320 319 317 315 316 318 316 317 319 322 324 327 330 332 334 335 336 336 336 336 336 337 337 337 337 339 338 339 339 339 338 337 337 332 328 326 326 326 325 324 322 319 318 321 326 329 332 330 327 329 329 328 330 331 331 327 324 327 328 327 327 327 328 329 329 329 330 329 328 327 326 327 328 328 327 326 326 327 327 326
319 320 320 319 316 315 315 315 316 318 318 317 317 314 313 314 317 319 317 317 315 316 318 318 320 321 322 322 325 328 331 335 336 336 336 336 336 336 336 336 337 337 338 338 339 338 339 339 337 337 334 331 328 326 327 327 325 323 321 318 318 322 325 329 330 328 327 325 327 330 331 331 329 324 325 327 327 326 327 328 329 329 329 329 329 328 327 326 326 326 326 326 327 327 327 326 325
320 321 320 318 317 318 317 316 316 319 319 318 318 314 313 315 318 318 317 316 315 318 318 317 319 320 320 321 324 328 332 336 336 336 337 336 336 336 336 336 336 337 338 338 338 338 338 339 338 337 336 333 331 328 328 328 327 325 323 319 318 320 322 325 326 325 323 322 328 331 331 331 330 326 324 325 327 326 327 327 327 328 328 329 328 328 328 326 325 324 325 326 326 327 326 325 325
321 321 320 319 317 318 317 316 316 316 317 318 316 312 312 314 316 316 316 316 316 317 314 314 319 320 320 319 322 327 333 337 336 337 337 337 336 336 336 336 336 337 338 338 338 337 338 339 338 338 336 335 334 330 329 329 329 327 324 322 319 319 321 323 323 321 318 320 328 331 331 331 329 328 325 324 326 326 327 325 325 327 327 327 327 328 328 325 324 324 325 326 326 326 326 325 325
320 319 320 319 317 317 316 316 317 316 315 318 314 311 313 312 311 314 315 316 315 313 311 313 317 318 319 318 321 326 335 336 335 337 337 337 336 336 336 336 337 336 337 338 337 337 338 339 338 338 337 337 336 333 332 331 330 329 326 324 321 318 319 321 321 320 317 319 325 328 329 329 329 328 327 324 325 326 326 324 324 326 327 327 327 327 326 325 324 324 325 326 326 326 326 326 325
318 319 321 319 316 317 316 316 317 316 315 317 311 310 315 312 309 312 312 313 313 311 313 315 316 318 317 317 323 328 336 336 335 337 336 337 336 336 336 336 336 336 337 337 337 337 337 338 338 338 337 337 337 335 334 333 330 329 328 326 323 321 318 319 320 320 318 318 321 322 323 325 326 326 327 325 324 325 325 323 322 326 327 326 326 326 325 324 325 324 324 325 325 325 326 325 325
317 320 320 318 316 317 317 317 317 315 315 315 309 311 317 314 309 310 308 310 313 312 313 315 316 318 318 320 323 327 334 335 335 337 336 337 336 335 336 336 336 336 337 336 337 337 337 338 337 337 337 337 337 335 335 335 331 329 330 328 326 323 320 319 318 319 319 318 319 319 321 323 325 326 326 325 324 324 324 323 322 324 326 327 326 324 324 324 324 324 323 324 324 324 325 325 325
319 321 318 316 317 318 318 318 316 315 316 314 311 313 317 316 311 309 310 312 313 313 313 314 315 318 321 322 322 326 332 335 336 336 336 337 336 336 336 336 336 336 336 336 337 337 337 337 337 337 337 337 336 336 335 335 333 331 332 331 328 326 323 320 318 318 318 318 318 318 323 325 325 327 325 324 324 324 325 324 322 322 324 326 325 323 323 324 324 323 322 323 324 324 324 324 324
319 321 318 317 320 317 315 316 315 314 315 314 312 312 314 315 312 311 313 314 313 313 314 313 315 318 321 323 324 328 331 335 336 336 337 337 337 337 336 336 336 335 336 336 337 336 337 336 337 337 337 337 336 336 335 335 334 332 333 332 331 329 326 322 320 319 317 318 317 319 325 325 324 325 322 321 322 324 324 325 324 322 322 324 325 323 324 324 324 322 321 323 323 323 324 324 324
318 319 319 319 320 316 312 313 313 311 312 314 313 310 311 312 311 312 314 315 314 314 315 313 315 316 319 324 325 329 332 335 337 337 337 337 337 337 337 337 336 336 336 336 337 337 337 336 336 337 336 337 336 336 336 335 334 334 334 332 332 331 330 326 323 321 319 318 316 320 324 321 321 323 318 317 320 323 324 324 324 323 322 322 323 324 324 323 322 322 322 323 323 323 323 323 323
317 317 319 318 316 316 312 310 310 308 309 313 312 310 312 311 310 312 314 314 314 315 316 314 315 315 318 325 326 330 333 335 336 337 337 337 337 337 337 337 336 337 336 336 336 336 337 337 336 336 336 336 336 336 336 336 335 334 333 333 331 331 331 330 327 323 321 320 318 320 320 316 319 322 318 318 322 324 325 324 324 324 323 323 323 325 324 322 322 322 323 323 323 323 323 322 323
317 315 315 314 313 315 312 308 309 307 308 312 312 312 313 310 310 312 314 315 315 314 313 314 314 313 320 326 327 331 332 334 336 337 337 337 337 337 337 337 337 336 336 336 336 336 336 337 336 336 336 336 336 336 336 336 335 334 333 332 332 331 331 331 330 327 324 322 320 319 317 315 318 320 319 319 321 323 324 324 324 324 324 323 323 324 324 322 322 322 322 322 322 322 322 321 321
317 315 311 311 311 313 310 307 308 306 309 312 312 312 311 311 312 310 312 315 314 310 309 310 309 312 323 327 327 330 332 334 335 336 337 337 337 337 338 337 337 336 336 336 336 336 336 336 336 336 336 336 336 336 336 336 335 334 333 332 331 331 331 331 331 329 327 325 323 321 319 318 319 320 319 318 319 321 322 322 323 323 323 323 322 323 323 321 321 322 322 322 321 321 320 320 319
316 316 312 310 309 310 308 306 307 306 309 310 309 310 311 313 313 308 309 314 312 308 308 309 309 314 325 327 327 331 332 333 334 335 335 336 337 337 337 337 337 337 336 336 336 336 335 336 336 336 336 336 336 336 335 335 335 335 334 333 332 331 331 330 331 330 329 327 325 323 321 320 320 320 319 318 318 319 319 317 318 319 320 321 320 321 321 320 320 321 321 321 321 320 320 319 318
316 315 311 310 309 309 306 305 306 306 307 307 308 311 311 310 310 308 311 313 311 307 309 314 316 321 325 326 327 331 332 333 334 334 334 335 336 335 335 335 335 336 335 336 336 335 336 336 336 336 336 336 337 336 335 335 335 335 334 333 333 332 331 330 330 330 329 329 327 325 323 322 322 321 319 319 318 318 317 312 313 315 316 316 316 318 318 319 320 320 320 320 320 320 319 319 318
314 313 311 310 310 309 307 307 307 307 307 307 310 312 310 307 307 310 314 311 307 307 311 318 321 322 324 326 328 331 332 333 333 333 333 333 334 333 333 334 334 335 335 335 335 335 335 335 336 336 336 337 337 337 336 335 335 335 334 334 334 333 332 331 330 330 329 329 328 327 326 324 323 322 320 319 318 318 316 313 313 312 312 311 313 315 316 317 319 320 320 320 319 320 319 319 318
312 311 310 310 309 308 308 309 308 308 308 308 312 313 309 307 308 313 313 307 305 308 313 320 322 320 324 326 327 330 331 332 333 332 333 332 332 332 332 332 333 334 334 334 334 335 335 335 335 335 336 336 337 337 336 336 335 335 334 334 334 333 332 331 330 330 329 329 328 328 327 326 325 324 322 321 319 318 317 316 315 313 312 310 310 312 312 314 317 319 319 319 319 319 319 318 318
311 311 312 310 309 310 309 310 309 310 310 308 311 312 310 308 310 314 311 305 306 309 313 320 323 319 322 326 326 330 331 332 333 332 332 332 331 332 332 333 333 333 334 334 334 334 335 335 335 335 335 335 336 337 337 336 336 335 335 334 334 334 333 332 331 330 329 329 328 328 328 328 327 326 325 323 321 320 319 318 317 316 314 312 311 309 309 312 314 316 318 319 319 319 318 317 317
310 312 313 311 311 312 310 310 309 310 311 308 310 311 312 312 313 313 308 304 307 309 312 317 320 319 319 323 324 327 330 331 331 331 332 332 332 333 333 334 333 334 334 335 334 334 334 334 334 335 335 335 335 336 336 336 336 334 334 334 334 334 333 333 332 331 329 329 328 328 329 328 328 328 327 326 324 323 321 320 319 319 318 316 314 311 309 310 312 313 315 317 318 318 318 317 317
311 311 313 313 312 313 310 309 309 310 310 307 309 310 312 314 313 310 306 305 307 310 312 313 316 317 318 320 321 324 327 329 330 330 332 332 334 333 333 335 334 334 334 334 334 334 334 333 334 334 334 334 334 335 335 335 335 334 333 333 334 333 333 333 333 332 330 329 328 328 328 328 329 329 328 328 327 326 324 323 321 320 321 320 318 315 311 310 311 312 312 315 317 316 317 316 316
312 311 312 314 313 312 310 309 310 312 309 307 309 309 312 313 311 307 305 306 308 310 313 311 311 313 314 317 318 321 324 327 328 329 331 331 332 332 332 334 333 334 334 334 334 334 334 333 333 333 333 334 333 334 334 334 334 333 333 332 333 333 332 333 333 332 331 331 330 330 330 330 330 330 330 330 329 329 328 327 324 323 323 322 321 319 315 312 311 311 309 312 315 315 316 315 315
311 311 312 314 312 311 311 309 309 312 310 308 310 310 312 313 311 307 305 306 308 310 312 311 311 310 310 312 314 316 320 323 325 326 328 329 329 330 330 331 332 332 332 333 333 334 334 333 333 333 333 333 333 333 333 333 333 333 333 332 332 331 331 332 332 332 331 331 330 330 331 331 330 329 329 329 329 329 328 329 328 327 326 325 324 324 321 317 314 312 310 311 313 314 315 315 315
311 311 313 314 312 311 311 310 308 310 312 310 310 311 312 313 312 308 305 306 308 310 312 312 312 311 310 310 310 312 314 316 319 322 324 325 326 326 327 328 329 329 330 331 332 332 333 333 333 332 332 332 332 333 332 332 332 332 333 333 333 331 331 331 331 331 330 330 331 330 331 331 331 330 328 328 329 330 329 328 328 328 328 327 325 325 324 322 318 314 313 313 312 314 315 315 315
312 312 313 312 311 310 310 311 309 308 311 312 311 311 312 313 312 310 307 306 307 310 312 312 312 312 312 311 310 310 311 312 314 317 318 321 323 324 325 325 326 327 327 329 330 331 332 332 333 332 331 332 332 332 332 332 332 332 332 332 333 332 331 331 331 332 332 331 331 330 330 330 331 331 331 330 330 330 330 329 328 328 329 327 325 325 324 323 321 317 315 314 313 314 314 314 315
313 313 312 311 310 310 310 311 310 309 311 313 312 311 312 313 312 312 310 308 308 310 311 312 312 312 311 312 311 311 310 311 312 314 313 314 316 319 321 323 324 325 325 326 328 329 330 331 332 331 331 332 331 331 331 332 332 332 332 332 331 331 331 330 330 331 330 330 330 330 329 329 330 330 331 331 331 330 330 330 329 329 329 328 325 324 324 324 323 321 317 315 315 314 313 313 314
313 313 313 312 311 310 310 310 308 308 312 312 313 312 313 314 313 313 312 309 309 310 311 311 311 311 311 311 311 312 312 312 313 312 310 309 310 311 314 316 319 322 323 324 325 326 327 329 330 330 331 331 331 331 331 331 331 332 333 334 334 333 332 330 329 330 331 331 331 331 331 331 330 330 331 332 331 331 330 330 329 328 328 326 324 323 324 324 324 324 321 317 315 314 313 313 312
313 313 313 314 313 310 310 310 307 307 312 313 313 313 313 313 313 313 313 311 310 311 312 312 313 313 313 312 312 313 313 314 312 309 308 308 308 308 308 309 311 314 318 321 323 324 325 326 327 328 329 330 330 330 331 330 330 331 331 333 335 335 334 332 330 331 332 333 333 333 332 332 332 332 331 330 329 329 329 329 329 328 327 326 324 323 323 323 324 324 322 318 315 314 313 313 312
312 312 312 313 313 311 310 310 308 306 311 313 311 312 313 313 313 314 313 312 311 312 313 314 314 314 313 313 313 313 313 313 311 309 309 308 307 308 308 307 307 309 311 315 318 321 323 324 325 326 327 328 329 329 330 330 330 330 330 331 332 333 334 334 333 332 332 331 331 331 331 331 331 331 329 328 328 327 327 328 328 328 327 326 325 324 322 321 322 321 319 317 315 314 313 312 312
313 312 312 312 313 311 309 309 308 307 310 313 311 312 314 315 314 314 314 314 313 313 313 313 313 313 313 313 313 313 312 311 311 310 310 308 306 306 306 307 307 308 309 310 311 316 320 322 322 324 325 326 327 328 328 329 329 329 329 329 329 330 331 332 332 332 330 330 329 329 329 329 329 328 327 328 328 328 328 328 327 327 326 326 326 325 323 320 321 320 318 316 315 314 312 311 311
313 313 312 313 314 312 309 310 309 307 308 310 312 313 314 315 314 314 313 311 311 310 308 308 309 311 312 312 312 310 310 311 311 311 310 309 306 305 305 306 306 307 307 308 308 310 313 315 317 321 323 324 325 325 326 328 328 328 329 329 328 328 329 329 330 330 329 328 328 328 328 329 329 329 329 330 330 329 329 329 329 328 327 325 325 325 324 322 322 322 320 318 315 312 311 312 311
314 316 316 316 316 314 312 311 309 308 307 308 311 312 312 314 314 313 311 307 307 306 306 307 307 308 308 307 308 307 307 309 309 310 310 310 308 307 306 305 305 306 306 307 307 308 308 309 311 315 318 321 322 323 324 325 326 327 327 327 327 327 327 328 329 330 330 329 329 329 329 330 332 332 332 330 329 328 329 329 329 328 328 327 325 325 324 324 324 323 321 320 318 315 313 313 311
313 316 317 317 315 314 314 312 311 311 311 309 310 309 309 313 314 313 311 309 310 309 308 309 308 308 307 307 309 309 308 308 307 307 308 308 307 307 306 305 305 305 305 306 307 307 307 308 308 310 313 316 318 320 322 324 325 325 326 326 327 327 326 326 327 327 329 329 330 330 329 330 330 331 331 329 328 328 328 328 328 329 328 327 326 325 324 324 323 322 322 322 321 320 317 313 310
311 314 316 316 316 317 317 315 313 312 311 309 308 310 309 312 313 313 311 312 313 311 311 310 309 310 310 311 312 311 310 310 308 306 305 305 306 307 308 307 307 306 306 306 306 307 307 307 307 308 310 313 315 317 320 323 324 324 325 325 326 326 325 326 326 326 326 327 327 328 328 328 328 328 328 328 329 329 329 327 327 328 327 326 327 326 325 324 322 322 324 323 321 319 316 312 311
313 314 316 316 317 320 320 316 314 312 311 311 311 312 310 309 313 313 310 311 313 312 311 311 311 311 311 311 310 310 310 310 308 307 307 308 308 309 310 310 309 308 308 307 306 307 307 307 307 308 310 312 314 317 320 322 323 323 324 324 325 325 325 325 325 325 325 325 326 326 326 326 326 326 326 327 327 328 328 328 328 328 327 326 326 326 325 324 322 321 323 323 320 317 316 315 314
315 311 313 315 316 319 318 315 313 311 311 311 312 313 310 309 313 313 310 310 312 312 311 312 312 311 310 310 309 309 309 309 307 307 310 311 311 310 310 310 310 310 309 308 307 307 308 308 308 309 311 313 315 318 321 322 322 323 324 324 324 324 324 325 325 325 324 324 324 325 325 325 325 325 325 326 326 326 327 328 328 327 327 327 326 325 325 324 323 322 322 322 320 319 318 316 314
312 307 311 314 314 315 315 313 311 310 310 312 312 311 309 309 313 314 310 310 312 312 311 311 311 310 310 309 309 309 309 310 309 309 311 311 310 310 309 310 310 310 310 309 309 309 309 309 310 311 313 315 317 318 320 321 322 323 323 324 324 324 324 324 323 323 322 322 323 323 324 324 324 324 324 324 324 325 326 326 327 326 326 326 326 325 325 324 324 324 324 323 321 320 318 316 314
309 311 313 313 313 313 312 311 310 310 312 311 309 307 308 308 311 314 312 310 312 312 312 311 311 310 309 309 308 308 308 310 310 310 311 310 308 308 309 310 310 311 311 311 311 311 311 311 312 314 315 316 318 318 319 320 321 322 323 323 323 323 323 323 322 321 321 321 321 322 322 322 322 323 323 324 323 324 324 325 326 326 326 326 326 326 326 325 324 323 324 323 321 319 318 317 315
310 314 314 313 313 312 311 310 310 312 312 309 305 305 308 308 310 312 311 309 309 311 312 312 311 310 310 309 308 308 308 309 310 311 311 311 311 310 310 311 311 311 312 312 312 313 313 314 315 315 317 318 319 320 320 321 321 322 322 322 323 322 322 322 321 321 321 321 321 321 321 321 321 322 322 323 323 323 323 324 324 324 325 325 325 325 325 325 324 324 324 324 322 320 318 316 314
312 313 312 313 313 312 313 313 312 312 311 306 304 305 308 309 310 310 310 309 307 309 312 312 310 309 309 309 308 308 309 309 311 311 312 313 313 312 312 312 311 311 312 313 313 314 314 315 316 316 317 318 319 319 320 321 321 321 322 322 322 321 321 321 321 321 321 320 320 319 319 319 319 320 320 321 321 321 321 322 322 322 322 322 322 322 323 323 324 323 323 322 322 320 319 316 315
312 314 312 312 313 313 314 312 309 310 309 305 304 306 309 310 310 311 311 310 308 307 309 310 309 308 307 307 307 308 310 310 311 312 311 312 312 312 311 311 310 310 311 312 312 313 313 314 314 314 315 315 316 317 317 318 318 318 318 318 318 318 318 318 318 318 318 318 318 318 318 318 317 317 318 318 318 318 318 319 319 319 319 319 320 320 321 321 322 322 321 320 320 319 319 317 317
313 316 314 312 313 313 313 311 310 310 309 306 304 307 310 310 309 310 309 309 309 307 305 306 307 306 306 306 307 309 311 310 311 311 311 311 311 311 311 310 309 309 309 310 311 311 312 312 312 312 312 313 313 313 313 313 313 313 314 314 314 314 314 314 314 314 314 314 314 315 315 315 315 315 315 316 315 315 316 316 316 316 316 317 317 317 318 318 318 318 318 318 318 318 317 317 317
311 312 312 312 313 312 309 307 308 308 308 308 307 308 311 311 310 310 308 307 308 307 305 306 308 306 306 309 310 311 311 310 311 311 310 310 310 310 309 309 308 308 308 309 309 310 311 311 311 311 311 311 311 312 311 311 311 311 311 311 311 311 311 311 311 311 311 311 311 311 312 312 312 313 313 313 313 314 314 314 314 314 314 314 315 315 315 315 315 315 315 315 315 315 315 315 316
310 310 310 310 313 314 309 305 304 305 308 310 309 310 311 310 310 310 309 308 308 306 306 307 308 308 309 313 313 311 311 310 310 310 309 309 309 308 307 306 306 306 306 306 307 308 309 309 309 309 310 310 310 310 311 310 311 311 310 310 310 310 310 310 309 309 309 310 310 310 310 310 311 311 311 311 312 312 312 312 313 313 313 313 313 314 314 313 314 314 314 314 314 313 313 313 314
310 311 312 309 310 312 310 308 307 306 309 310 309 310 309 308 309 310 309 310 310 308 308 308 308 310 312 313 312 311 310 309 308 308 308 308 308 307 306 305 304 304 304 305 306 306 307 307 307 307 308 308 309 309 309 309 310 310 310 310 309 309 309 309 309 309 309 309 309 309 309 309 309 310 310 310 310 311 311 311 312 312 312 312 312 312 313 312 313 312 313 313 313 312 312 312 312
310 311 311 310 311 311 308 309 310 309 310 310 308 306 307 308 309 310 310 311 311 309 308 307 308 311 313 312 311 310 309 309 308 308 308 308 307 306 305 304 303 303 303 304 305 305 306 306 306 307 307 307 308 308 309 309 309 309 310 309 309 309 309 308 308 308 308 308 308 308 308 308 308 309 309 309 309 309 310 310 310 311 311 311 310 311 311 311 311 312 312 312 311 311 310 310 310
308 308 309 310 311 311 310 309 309 310 310 310 309 306 307 310 310 310 310 311 311 310 309 308 309 312 313 312 311 310 309 310 309 308 307 307 306 304 303 303 302 303 303 304 305 305 306 306 306 307 307 307 308 308 309 309 309 310 310 309 309 309 309 309 308 308 308 308 308 308 308 308 308 308 308 308 308 308 308 309 309 309 309 309 309 309 309 310 310 310 310 310 310 309 309 308 309
308 308 309 310 309 308 309 308 307 309 309 308 309 307 308 310 309 310 310 309 310 311 309 309 310 312 313 312 311 311 310 310 308 307 307 306 305 303 302 302 302 303 304 304 305 306 306 307 307 307 307 307 308 308 308 308 309 309 309 309 309 308 309 308 308 308 308 308 308 308 308 307 307 307 307 307 307 307 307 307 307 308 308 308 308 308 308 308 309 309 309 309 309 308 307 307 307
312 309 310 312 311 310 311 311 308 307 308 308 308 308 309 312 309 308 308 307 308 309 309 309 310 312 312 311 311 311 309 309 308 306 306 306 305 303 302 301 302 302 303 304 305 305 306 306 306 307 307 307 307 307 307 308 308 308 308 308 308 308 308 308 307 307 307 307 307 307 307 307 307 307 306 306 306 306 306 306 306 306 306 306 306 306 306 306 307 307 307 308 308 307 306 306 306
Wind_Speed
4 4 4 4 3 3 1 1 1 1 1 0 1 1 3 2 2 3 6 5 3 3 1 1 5 5 1 3 3 4 5 3 3 2 2 4 7 14 13 14 15 15 14 12 12 11 11 13 13 12 11 9 10 11 14 15 14 14 14 14 13 13 12 11 10 10 12 14 15 15 16 15 16 16 15 15 15 15 16 17 17 16 15 17 18 18 17 18 18 18 17 17 17 17 15 15 15
3 4 3 4 4 2 1 1 2 1 2 1 2 1 3 3 2 6 7 5 2 4 2 3 6 2 2 4 2 3 4 6 5 3 4 5 11 13 12 15 16 14 13 12 12 10 11 12 13 12 11 10 10 12 13 14 14 14 14 14 14 13 12 11 9 10 11 13 15 14 14 14 15 15 14 14 14 15 16 16 16 15 15 17 17 18 17 17 17 17 17 17 17 16 15 15 15
2 3 2 2 4 1 1 1 2 1 2 1 3 3 4 5 6 5 5 5 5 5 5 5 5 1 3 3 2 1 3 3 2 4 5 9 12 12 11 14 15 14 13 12 12 10 10 13 13 12 11 11 11 13 13 13 15 14 13 13 14 14 12 10 9 10 10 11 13 13 13 14 14 14 13 14 14 15 15 14 14 15 16 16 16 17 17 16 16 16 16 16 16 15 15 15 15
2 3 2 2 1 0 1 1 1 1 2 0 1 5 6 6 6 5 6 6 7 6 6 6 5 1 4 3 1 1 3 4 3 4 7 10 9 13 13 14 16 13 13 12 12 10 10 13 13 12 11 11 11 13 13 13 14 14 14 13 14 13 11 10 10 11 11 10 12 14 13 13 14 13 13 14 14 15 15 14 14 15 15 15 15 15 15 15 15 15 15 15 15 15 15 15 15
4 4 2 2 2 0 0 0 0 2 0 0 0 5 7 5 6 7 7 7 7 4 4 4 3 3 2 2 3 1 4 4 4 5 9 11 9 14 15 15 16 13 13 12 12 11 11 13 13 12 11 10 11 12 12 12 12 14 14 13 13 12 11 9 9 11 12 11 11 13 12 12 13 13 14 14 14 15 14 14 15 15 14 14 14 14 14 14 14 15 15 14 15 15 15 15 15
5 6 6 4 1 1 1 1 2 2 2 1 1 3 7 6 7 8 9 7 4 2 2 2 1 1 1 1 2 2 2 2 6 7 10 13 12 14 15 16 15 14 13 12 12 11 13 14 13 12 10 11 11 11 12 12 12 12 13 15 15 12 10 8 9 11 12 11 10 11 10 10 11 12 14 14 14 14 14 14 14 14 14 14 13 13 13 14 14 14 15 14 14 14 15 15 15
3 3 5 4 3 1 3 2 1 1 2 1 3 2 6 7 7 10 11 7 3 1 1 2 0 1 1 2 2 2 2 0 5 8 11 14 15 16 16 15 14 14 12 12 12 11 13 13 13 11 10 11 11 11 11 12 12 12 13 16 15 12 10 9 10 11 12 11 9 9 8 9 10 12 14 14 14 14 13 13 13 13 13 13 13 13 13 13 14 13 14 14 14 14 14 14 15
1 1 1 1 2 1 2 1 1 0 1 1 3 1 3 6 8 10 11 6 3 3 2 3 2 3 1 1 1 4 1 1 4 8 14 16 18 17 17 15 14 15 12 12 12 11 13 13 12 11 9 10 10 10 11 11 12 12 13 14 14 12 11 10 10 10 11 11 10 8 8 10 10 12 14 13 13 13 13 13 12 12 11 12 12 12 12 13 13 13 13 13 13 13 13 13 13
3 2 1 1 1 1 1 1 1 0 1 1 2 1 0 4 6 7 11 5 2 3 2 5 3 2 3 3 1 4 3 3 4 11 16 17 18 18 17 16 15 15 13 12 12 11 12 13 12 10 9 9 9 9 10 11 11 11 11 12 14 13 11 9 9 8 10 10 10 9 9 10 10 12 14 13 13 13 12 12 12 12 11 11 12 12 12 13 13 13 12 12 12 12 12 12 12
2 3 1 1 1 2 1 1 2 1 1 1 1 2 2 5 5 5 10 5 3 3 3 4 2 2 3 4 2 3 4 4 7 13 16 17 19 18 16 15 15 15 13 13 13 12 12 13 13 11 10 9 9 8 9 10 10 10 10 12 14 13 12 9 7 7 9 10 9 8 9 10 11 13 14 12 12 12 11 11 11 11 11 11 11 11 11 12 12 12 11 11 11 11 11 11 11
1 2 0 1 2 3 2 2 2 1 1 1 2 2 3 6 6 5 6 4 3 2 4 4 2 4 4 3 2 4 5 6 10 15 17 17 18 17 16 15 14 14 13 13 13 12 12 12 13 12 10 9 8 8 8 9 9 10 9 10 11 13 13 9 6 8 8 7 7 8 9 10 11 13 14 12 11 10 11 11 11 11 11 10 10 10 11 11 11 11 10 10 10 11 11 10 10
1 1 1 2 2 1 0 2 3 2 1 2 4 4 4 6 7 7 7 4 4 3 5 6 1 3 5 2 2 5 6 8 11 15 17 17 17 17 16 14 14 13 12 13 12 12 12 12 12 12 11 9 8 8 8 9 9 9 9 9 10 12 12 9 7 7 7 6 7 9 10 11 11 12 13 13 11 10 10 10 11 11 10 10 10 10 10 10 10 9 10 10 10 10 10 10 9
1 1 2 2 0 0 0 1 2 1 2 3 3 5 5 7 7 7 8 4 4 5 4 5 1 2 3 3 3 4 7 10 13 15 17 17 16 16 15 14 14 13 12 14 13 12 12 12 12 12 12 10 9 9 9 9 9 9 9 9 10 11 10 9 7 6 7 8 9 9 10 11 11 11 12 13 12 9 10 9 11 11 10 9 9 10 9 8 8 8 9 10 9 9 9 9 9
0 1 1 1 1 0 1 0 2 3 3 4 3 6 5 4 2 4 7 6 5 3 1 2 1 2 2 3 3 4 8 13 14 15 16 16 15 15 14 13 14 13 13 14 13 13 13 12 13 13 12 11 10 9 9 9 9 9 9 9 9 10 10 8 7 6 7 10 10 9 10 10 9 9 10 12 11 9 9 8 11 11 9 8 8 9 8 6 7 8 9 10 9 8 9 9 9
1 1 1 2 1 1 2 1 2 3 3 6 4 5 5 1 1 3 4 4 3 3 2 2 1 2 1 2 3 5 11 14 15 16 16 15 14 14 14 13 13 12 13 14 14 14 13 13 13 13 12 11 10 9 8 8 9 9 9 8 8 9 10 8 6 5 6 9 9 8 8 7 7 7 8 9 10 9 8 7 10 12 10 6 6 6 6 6 8 8 9 9 8 9 10 9 8
1 2 1 2 2 2 3 1 1 2 3 6 3 3 6 2 1 2 0 2 2 3 1 3 2 2 3 1 4 6 12 15 14 16 16 16 15 14 14 12 12 12 13 14 14 14 14 14 14 13 12 12 11 10 9 8 8 9 8 8 7 8 8 8 7 5 6 7 7 7 6 6 5 5 6 8 9 9 8 7 9 13 10 6 5 5 6 7 8 8 8 8 9 9 9 8 7
1 1 2 2 2 2 4 4 3 1 4 6 5 6 8 5 1 1 1 1 2 3 2 1 1 2 3 3 4 6 11 14 15 16 16 17 16 15 14 13 13 12 13 14 15 15 14 15 15 14 13 13 12 10 9 8 9 8 8 8 7 7 7 7 7 6 6 6 6 5 5 5 5 5 6 7 8 9 9 7 8 12 11 8 7 6 7 8 8 7 8 8 9 8 8 7 6
2 2 2 2 2 2 3 5 3 1 3 7 7 8 7 6 5 3 3 3 2 2 4 2 1 4 2 2 3 7 11 14 17 17 18 18 17 17 15 14 14 14 14 14 15 15 15 16 15 14 14 14 13 12 11 10 10 9 8 8 8 8 8 7 7 7 7 6 6 5 6 6 6 6 6 6 7 9 9 8 7 9 10 10 7 6 7 8 7 7 8 8 8 7 6 6 6
1 1 2 3 1 1 1 3 3 1 2 7 8 6 4 3 6 5 4 5 3 5 5 4 5 6 6 2 4 10 11 15 18 18 20 20 19 18 16 15 16 16 15 15 16 16 16 16 16 15 15 15 14 13 12 11 11 9 8 8 8 8 9 9 8 8 8 8 7 7 7 6 6 6 6 6 7 9 9 9 7 7 9 10 8 6 7 7 7 7 8 7 6 6 6 6 6
1 1 4 2 1 1 1 1 2 1 1 6 8 4 2 1 3 4 4 3 4 8 6 6 8 9 9 6 6 12 13 15 18 18 20 20 20 19 18 17 17 17 17 16 15 16 16 17 17 17 16 16 16 14 12 11 11 10 9 10 10 9 9 9 10 10 9 9 8 7 7 7 6 6 5 5 7 8 8 9 8 7 7 9 9 6 7 8 6 7 7 6 6 6 6 6 6
2 2 2 2 1 1 2 1 1 1 1 3 7 6 4 2 1 4 4 4 5 8 7 8 9 8 10 9 9 15 15 16 18 19 20 20 20 18 17 17 16 16 16 15 15 16 16 16 17 17 17 17 16 15 14 13 12 11 10 11 11 10 9 9 9 11 10 9 9 9 9 7 7 6 6 6 7 8 7 7 7 6 6 8 8 5 5 6 4 6 7 7 7 7 7 6 6
3 1 2 3 2 1 3 1 1 1 0 4 8 7 5 4 3 4 6 7 3 1 2 4 5 2 7 9 11 16 17 17 19 20 21 21 21 19 18 17 16 16 16 16 16 16 16 17 18 18 18 17 16 16 15 14 14 13 12 12 12 11 10 9 9 10 11 11 10 10 9 9 8 8 8 8 8 9 9 8 7 7 6 7 8 6 5 5 5 7 8 8 8 8 8 7 7
2 1 1 1 0 1 2 1 1 1 2 5 6 4 5 6 4 1 6 9 1 4 2 2 3 1 5 10 12 14 17 19 21 23 23 22 22 21 18 17 17 18 18 17 16 16 17 18 18 18 18 18 17 16 15 15 16 14 13 14 13 12 10 10 9 9 11 12 12 11 10 10 10 10 9 9 9 9 10 10 9 8 7 7 8 7 6 7 7 9 9 9 9 8 8 7 7
3 3 3 2 1 2 2 1 2 1 2 2 2 3 4 6 4 2 6 10 3 4 2 3 1 3 6 10 12 14 17 20 21 22 22 21 21 20 18 16 16 17 18 19 18 17 18 19 19 18 18 17 17 17 16 16 16 14 13 15 15 13 12 11 10 9 10 12 13 13 12 11 11 10 10 10 9 9 10 11 11 10 9 9 9 9 9 9 9 10 10 10 10 9 9 8 8
3 3 4 3 1 2 3 2 3 1 1 2 2 4 2 1 0 1 8 7 3 1 1 1 3 5 6 9 11 13 14 17 18 18 19 18 17 17 18 17 16 17 19 19 19 18 18 19 19 19 19 18 17 18 18 18 17 15 14 15 15 15 13 11 11 10 9 10 13 15 14 13 12 12 11 11 10 10 11 11 11 12 12 11 11 11 11 11 11 11 11 11 11 11 10 10 10
3 4 5 5 2 2 2 3 3 1 1 1 4 4 2 1 2 6 7 2 2 2 1 1 3 6 7 8 10 12 13 15 17 17 18 16 15 17 20 20 19 19 19 19 19 19 19 19 19 20 20 20 19 18 19 19 18 18 17 16 15 16 14 12 11 11 10 9 10 13 15 15 14 13 13 12 12 12 12 11 12 13 13 13 12 12 12 12 13 13 13 13 13 12 12 12 11
5 7 7 5 3 2 1 3 3 1 2 1 3 4 2 1 1 6 2 4 2 2 2 1 3 7 7 7 8 10 11 13 15 15 15 16 16 18 20 22 22 21 19 19 20 19 19 19 19 20 20 20 20 19 19 19 19 19 19 18 16 16 15 13 12 11 11 11 10 10 13 16 16 14 14 14 13 13 13 13 13 13 14 14 13 13 13 13 14 15 15 15 14 13 13 13 12
8 10 9 6 3 4 2 3 3 1 3 2 1 3 2 3 3 4 3 4 2 2 4 2 4 5 5 6 6 8 9 10 12 13 16 18 19 19 20 22 22 21 20 20 20 18 19 19 18 19 19 19 20 20 20 21 21 21 20 20 19 18 17 15 13 12 12 13 15 14 12 15 17 16 16 15 15 15 14 15 15 15 15 15 15 15 14 14 14 15 16 16 15 15 15 15 14
7 5 6 4 3 4 2 2 1 2 2 1 1 2 4 6 7 2 4 3 2 1 4 3 4 4 3 4 5 6 8 9 11 14 17 19 18 18 20 20 19 20 19 19 18 18 19 18 18 18 18 19 21 21 22 21 22 23 22 21 21 20 19 18 16 16 14 14 18 19 16 17 19 18 18 17 16 16 16 16 16 16 16 16 16 16 15 15 15 16 17 17 17 17 17 17 16
5 1 1 4 4 3 2 1 0 1 2 2 3 4 5 7 7 2 4 3 2 3 4 3 4 4 4 4 4 6 8 10 13 16 17 16 16 16 17 17 17 18 16 16 19 20 19 18 17 18 19 20 21 22 23 23 22 23 24 22 22 22 21 20 19 20 20 18 18 19 19 18 18 19 19 19 18 17 18 18 18 18 17 16 16 17 17 17 17 18 18 18 19 19 18 19 19
5 4 1 3 5 4 3 2 1 3 2 2 3 6 5 3 2 3 3 1 2 5 4 3 3 3 4 4 5 6 8 12 15 16 16 15 15 15 16 17 17 19 17 17 19 20 19 18 17 16 19 20 21 21 22 24 23 24 25 24 23 24 24 23 22 21 22 23 21 20 20 19 18 19 19 19 18 18 20 21 21 21 19 17 17 18 18 19 19 19 20 20 20 21 21 22 21
3 4 4 3 4 3 4 2 2 1 2 1 4 5 6 4 0 4 3 1 2 6 5 3 4 4 4 4 5 6 7 11 13 15 16 16 18 18 19 19 19 21 22 20 19 20 19 19 18 17 18 20 20 21 21 21 22 23 25 25 25 25 24 25 24 22 22 23 23 22 22 21 20 20 19 19 20 20 20 21 22 23 22 19 19 19 20 21 21 21 21 21 22 23 23 24 23
1 3 4 4 4 4 3 2 2 2 2 3 4 4 3 1 1 3 2 1 0 4 6 5 5 4 4 4 4 5 6 8 11 15 18 18 21 25 24 23 22 24 25 23 21 21 21 20 20 19 19 19 19 20 21 21 21 20 21 22 23 23 24 25 25 24 24 23 24 25 25 24 23 23 22 22 23 23 21 21 23 25 25 23 21 21 21 23 23 24 24 23 24 22 22 25 25
4 2 1 1 3 4 3 3 1 1 2 5 5 5 7 2 1 2 2 1 2 4 6 6 5 4 4 3 4 5 6 7 9 13 17 20 24 28 27 26 25 26 26 26 24 24 22 21 20 20 20 19 19 19 20 21 21 21 21 20 20 21 22 23 24 23 23 21 22 24 26 26 25 26 27 27 26 26 25 26 26 27 28 27 25 24 24 24 24 26 27 27 27 24 23 25 24
8 6 4 2 2 4 3 2 1 1 2 5 5 7 12 9 6 6 3 3 3 7 7 6 6 6 5 4 5 6 6 8 10 9 11 16 22 25 27 28 27 27 28 28 27 26 24 22 20 20 20 20 20 19 19 19 19 22 24 23 24 24 22 21 22 23 24 24 23 23 25 26 25 27 29 30 30 29 31 31 30 30 30 28 28 28 27 26 27 29 29 29 29 28 27 26 24
9 7 5 5 5 3 2 2 2 1 3 6 8 8 11 11 9 9 4 3 4 8 7 7 7 6 6 6 6 6 7 9 7 7 11 14 18 21 23 25 27 28 29 28 28 27 27 25 23 21 20 20 20 20 20 20 19 20 22 22 25 27 25 23 22 24 27 28 28 27 28 29 28 28 26 27 29 30 34 35 32 32 31 30 31 32 32 30 29 30 32 32 30 29 29 28 27
8 7 4 3 4 2 1 2 2 1 4 6 6 8 11 12 11 12 7 3 5 10 9 9 8 7 6 7 7 7 8 7 3 7 11 12 14 16 18 20 22 24 26 27 28 29 30 28 27 26 23 20 21 22 21 21 21 20 21 21 22 24 25 24 22 22 22 21 22 24 27 28 29 27 24 24 26 29 32 34 33 32 31 32 33 34 35 32 30 31 32 32 31 30 30 30 29
6 6 5 2 2 1 1 1 2 1 3 3 1 6 12 13 12 12 9 6 8 11 11 10 9 7 6 6 8 7 6 5 4 7 8 9 12 12 13 15 17 19 22 25 27 28 28 28 29 29 26 23 22 22 21 22 21 20 20 20 20 22 22 22 21 22 22 20 19 21 22 24 24 23 23 24 27 28 28 29 31 31 31 32 34 36 36 33 31 32 31 31 30 30 30 30 29
4 3 4 3 1 2 2 1 2 1 2 1 1 5 10 11 11 11 10 9 9 8 8 8 6 7 6 6 6 5 6 6 5 7 7 8 11 11 12 13 15 18 19 21 23 24 25 28 30 29 28 28 25 22 21 21 20 18 17 16 17 18 18 18 20 22 24 25 24 23 23 24 25 25 27 29 31 32 30 29 30 28 28 30 32 36 36 33 31 32 32 31 29 29 29 29 30
2 2 4 2 1 2 2 3 3 1 1 2 2 5 9 8 9 10 8 6 6 4 6 7 7 8 8 7 5 5 8 8 7 8 7 6 8 10 12 13 15 17 18 20 21 22 24 26 29 28 28 28 26 23 20 18 18 17 16 16 16 17 17 18 19 21 24 25 25 26 26 27 29 30 30 30 32 33 33 32 30 28 28 29 30 33 35 34 33 33 33 33 32 28 27 29 31
0 2 3 2 3 3 1 4 4 1 1 1 2 6 7 4 6 7 3 1 4 3 4 6 6 7 7 6 6 7 9 9 9 8 6 5 6 7 9 11 14 16 18 20 21 22 23 24 25 26 26 26 26 26 20 16 17 17 17 19 19 19 20 19 20 20 22 24 25 26 27 27 28 28 26 26 27 29 30 32 33 32 31 32 32 31 32 35 35 36 33 33 34 31 30 31 31
2 4 3 2 5 6 4 6 4 2 3 1 2 5 4 1 3 5 0 1 3 2 2 4 3 3 4 4 4 5 6 7 8 8 6 5 6 7 8 10 12 13 16 18 19 21 21 22 23 23 24 24 24 25 20 15 16 17 18 20 20 20 20 21 22 22 21 22 24 25 25 24 24 25 25 26 28 29 30 33 34 32 32 34 34 32 33 35 36 36 33 32 34 35 33 29 28
3 3 2 3 5 8 8 7 4 2 1 1 1 5 4 1 3 3 1 4 5 3 2 1 1 1 1 2 2 3 3 4 5 6 6 5 5 5 5 6 8 11 13 15 16 18 19 20 20 20 20 21 21 22 19 15 15 16 17 19 19 18 18 18 19 18 17 18 19 19 20 20 21 23 24 25 25 26 28 29 30 30 31 32 31 32 36 37 36 35 34 34 35 35 33 28 27
3 1 2 6 7 8 8 7 3 0 1 1 0 2 4 5 3 0 1 4 6 3 3 1 1 1 0 1 2 3 3 3 3 3 2 2 3 3 3 4 6 7 10 12 13 14 16 17 17 15 16 17 17 16 15 14 15 15 15 17 16 16 17 16 14 13 14 15 15 15 15 17 19 21 22 22 23 25 27 29 29 29 30 31 31 33 36 36 35 35 35 36 34 34 36 34 33
0 1 1 4 6 6 6 4 2 2 1 4 2 1 4 6 2 1 1 3 6 3 3 2 1 1 2 2 3 3 3 2 2 1 0 1 1 2 3 4 5 6 7 9 10 12 12 13 13 12 12 13 13 12 13 13 14 13 13 14 15 15 15 14 12 12 11 11 13 14 14 15 17 19 20 22 23 24 26 27 27 27 29 32 34 34 34 33 33 34 35 34 35 36 38 39 38
3 5 5 6 5 5 4 2 3 2 3 5 2 2 4 5 3 2 1 2 6 3 3 2 1 1 2 3 3 3 2 2 1 1 1 1 1 3 6 7 8 8 9 9 9 10 10 11 11 11 11 11 11 11 12 13 13 13 12 13 14 13 12 11 12 14 14 14 16 17 16 16 17 18 20 22 24 25 26 28 27 28 29 30 31 31 32 32 33 35 34 34 36 38 38 38 39
8 7 7 8 5 3 3 2 2 2 4 2 2 2 3 4 3 3 2 1 2 2 4 3 2 2 2 3 3 3 3 2 2 1 2 2 3 5 8 9 9 10 11 11 11 11 12 12 12 11 11 11 11 11 12 13 14 13 12 11 12 11 10 10 12 15 16 18 21 21 20 20 20 21 22 24 25 25 27 29 30 30 29 29 28 29 29 29 31 33 33 33 35 36 37 37 38
5 4 6 7 3 2 2 2 1 4 4 2 3 2 3 5 3 1 0 1 1 2 5 5 3 3 4 3 3 3 2 2 2 2 3 4 5 7 8 9 11 12 12 13 14 14 14 14 13 12 12 11 11 11 11 11 13 13 12 11 10 10 9 9 10 12 13 15 18 19 19 21 23 24 24 25 25 24 25 27 29 30 31 31 30 31 32 31 31 31 31 33 35 36 37 35 36
2 5 7 6 3 2 3 2 2 4 2 2 1 2 3 7 6 5 5 4 4 4 3 3 2 2 3 3 3 3 2 2 2 3 3 4 4 6 7 8 11 13 14 14 15 15 15 14 13 12 12 11 10 10 10 9 9 10 10 10 9 9 10 10 10 10 10 11 12 13 14 16 18 20 22 24 24 23 24 24 24 26 28 29 31 32 33 33 32 30 29 30 33 34 34 34 36
5 7 7 6 5 4 5 3 1 3 0 2 1 1 3 5 5 8 10 5 3 3 2 0 1 2 3 3 3 2 2 2 2 3 4 4 5 5 6 8 11 13 14 14 15 15 15 14 13 12 11 10 9 8 7 6 6 6 6 7 8 9 10 11 10 9 9 9 10 11 12 12 13 14 16 17 18 19 21 22 22 22 23 24 27 30 31 32 32 30 28 27 29 31 31 32 35
3 1 1 4 4 3 4 3 2 2 2 2 1 2 4 2 1 2 3 1 1 1 0 1 2 3 3 2 1 1 3 3 3 4 5 5 6 6 7 9 12 14 14 14 14 14 14 14 13 12 11 10 9 8 7 6 6 6 6 6 7 8 9 10 10 11 11 10 11 11 12 12 13 13 14 13 14 17 18 18 19 20 21 20 20 22 25 27 29 30 30 29 27 27 28 30 31
1 1 1 2 2 2 2 1 0 1 1 2 3 3 3 2 3 2 2 0 2 2 1 2 2 1 1 2 3 4 5 5 4 5 5 6 6 7 8 10 13 15 15 15 15 15 14 14 14 13 12 11 11 10 9 9 8 7 7 6 6 6 6 7 8 9 10 11 12 12 14 15 14 15 16 15 16 18 18 17 17 17 19 19 19 18 17 19 21 23 26 26 26 26 28 30 31
2 2 3 2 1 4 4 1 1 1 3 2 3 4 3 3 6 2 3 2 3 3 3 4 3 3 4 4 5 5 5 4 4 4 5 6 6 7 8 10 12 14 16 16 16 16 16 15 14 14 13 12 12 11 10 9 8 7 5 4 3 2 3 4 5 6 7 9 10 11 13 14 14 14 15 16 16 16 17 17 17 17 18 20 21 21 19 18 18 18 21 22 23 25 29 31 32
2 3 5 3 1 1 2 1 2 1 4 1 2 5 4 3 3 1 3 4 4 5 4 5 5 5 7 6 5 5 4 4 4 4 5 5 6 7 8 10 13 15 16 16 17 17 17 16 15 14 13 12 12 11 10 10 9 8 6 5 3 1 0 2 3 4 5 6 7 8 10 11 12 12 13 14 14 15 16 17 17 19 20 20 21 22 23 23 22 22 24 25 24 24 26 30 32
0 2 2 2 2 3 2 2 2 3 4 2 2 3 3 5 4 0 3 7 8 7 5 6 7 8 8 7 6 6 5 4 4 5 5 5 6 7 8 10 13 15 17 18 18 18 18 18 17 16 16 14 13 12 12 11 10 10 8 7 5 4 3 3 3 4 5 6 7 8 9 10 11 11 12 13 13 14 15 15 16 18 19 19 18 20 22 24 25 26 28 29 29 26 26 29 29
1 1 2 0 2 2 3 2 2 3 3 2 2 1 3 6 5 5 6 8 10 9 7 7 10 11 10 8 7 6 5 5 5 5 4 5 7 7 8 11 14 17 18 19 20 19 19 19 18 18 17 16 15 14 14 13 12 11 10 9 8 8 7 7 7 7 7 8 8 8 9 10 10 10 11 12 12 13 14 15 15 16 18 18 18 19 21 24 26 28 29 29 29 28 27 29 30
3 4 5 4 1 0 1 1 1 1 3 3 2 3 3 2 4 8 6 3 4 7 7 7 9 10 10 9 8 7 6 5 5 5 5 6 7 8 9 12 15 18 19 20 20 20 19 19 18 18 17 17 16 15 15 14 14 13 13 12 12 12 11 11 10 10 10 9 9 9 9 10 10 10 11 11 12 12 13 14 15 16 17 18 19 19 20 23 26 28 29 29 30 28 28 28 29
2 4 5 6 4 3 4 4 1 1 1 2 1 3 3 1 2 5 2 2 1 3 6 7 8 10 10 8 7 7 6 6 5 5 5 6 7 7 9 13 16 18 19 20 20 20 20 20 19 19 19 19 18 17 17 16 15 15 15 15 15 15 15 14 13 13 12 12 11 11 10 10 10 10 10 11 11 12 12 13 14 16 16 17 18 19 20 21 24 27 28 29 29 29 29 30 30
Wind_Direction
26 37 44 58 102 155 105 0 221 101 267 205 110 188 144 118 21 173 160 151 163 141 120 81 148 148 150 318 349 57 31 23 11 346 84 71 132 145 158 157 153 153 150 155 154 155 154 147 141 135 132 119 104 103 107 110 108 108 108 107 110 112 110 97 85 90 100 102 99 96 95 93 92 91 87 86 84 85 83 82 86 88 87 83 84 85 85 86 84 85 86 89 89 87 88 90 91
35 52 70 76 73 202 172 329 262 131 233 180 148 186 111 144 195 188 163 151 116 99 119 132 149 161 327 320 294 140 70 32 21 39 68 105 135 150 163 153 153 152 151 156 150 150 151 148 143 135 131 122 107 106 107 110 112 109 106 109 112 111 109 104 98 93 97 100 98 94 93 92 91 94 92 89 86 87 86 87 91 89 86 87 87 86 87 87 86 86 88 89 89 90 90 91 90
59 71 109 130 57 19 129 235 258 175 229 175 145 132 131 178 187 167 128 105 88 107 128 123 146 174 283 228 217 230 86 62 81 83 96 134 145 163 167 153 155 153 155 156 150 150 149 151 143 135 135 124 112 110 106 108 114 112 109 110 112 111 108 110 106 96 95 98 99 95 92 92 91 94 97 96 94 92 91 94 97 93 92 91 87 86 88 89 88 88 90 90 90 90 90 91 92
83 95 142 208 148 122 191 235 283 250 223 154 133 139 173 191 163 125 91 96 108 127 133 143 161 104 293 259 0 357 101 98 134 110 129 151 151 159 160 156 157 156 161 158 155 153 151 156 145 140 139 124 118 113 106 107 113 117 115 112 110 108 109 109 101 99 101 99 98 99 95 92 89 92 99 101 100 98 95 95 99 100 97 92 88 87 87 86 87 90 91 92 92 91 90 90 92
94 98 124 229 224 116 108 191 199 255 242 58 82 144 185 184 144 120 104 120 120 117 118 165 176 92 274 313 343 326 105 100 149 150 142 152 147 151 156 156 158 160 164 160 160 157 156 158 145 144 141 129 123 114 108 106 113 122 121 116 113 109 111 106 101 104 107 104 99 102 99 90 85 92 104 106 104 102 100 99 103 103 99 95 93 92 88 85 88 92 93 92 93 92 92 93 94
97 85 80 79 97 44 200 197 200 222 42 344 346 129 176 166 144 127 121 128 115 60 92 193 212 103 194 109 320 6 73 111 146 161 149 152 152 151 154 155 159 162 164 163 161 158 158 156 145 148 146 134 126 117 112 109 114 122 124 122 117 112 114 112 103 103 109 111 106 103 97 86 80 95 109 110 108 105 103 104 104 101 100 100 98 95 90 86 89 94 94 94 93 94 95 96 96
160 112 68 83 112 306 235 228 235 200 68 351 349 92 155 152 146 135 139 146 143 160 151 207 286 225 180 102 193 81 32 137 135 161 156 151 152 152 154 157 161 162 165 165 161 160 161 157 148 151 150 139 129 123 119 113 111 115 124 123 118 113 115 117 110 106 112 117 115 106 96 86 83 103 114 111 110 107 106 106 105 105 106 104 98 96 92 89 90 93 95 95 95 96 98 100 101
149 160 335 220 139 333 252 239 257 307 73 317 315 358 130 147 160 151 151 159 161 165 160 160 204 239 144 79 194 106 119 184 141 158 154 151 152 154 155 158 163 165 166 165 165 163 164 161 153 156 155 143 133 129 123 115 108 113 126 127 124 118 112 112 113 114 115 118 119 111 100 90 87 109 117 111 110 109 109 107 105 106 105 100 95 94 93 93 93 94 97 98 99 101 103 106 106
44 28 220 219 171 164 237 237 164 65 132 226 258 254 342 161 183 167 155 149 123 161 154 144 178 260 137 157 122 104 156 170 152 154 155 155 154 155 157 162 166 167 168 167 167 165 169 167 161 163 160 150 140 132 124 118 110 115 127 133 131 125 117 111 115 120 118 117 118 112 104 94 89 113 120 113 112 112 111 107 106 105 100 99 96 92 92 95 96 96 97 99 101 104 107 107 109
36 17 182 158 199 205 213 201 149 134 155 247 259 215 185 170 198 182 159 144 122 160 122 116 177 251 155 153 121 106 157 165 157 156 159 157 155 158 159 164 167 169 170 170 168 166 172 172 169 169 165 158 147 138 130 124 120 121 127 135 138 137 128 116 122 133 126 117 113 113 110 100 95 115 121 115 113 111 109 107 109 108 103 101 98 96 94 96 99 97 96 100 102 104 106 106 108
155 51 262 188 204 213 203 173 148 132 121 265 232 191 174 172 183 161 153 138 137 158 126 145 204 194 174 148 123 103 137 166 162 159 161 160 158 160 160 164 169 171 173 173 169 167 173 176 177 174 171 169 158 151 143 135 132 130 131 136 142 143 131 121 135 142 137 122 113 118 120 111 104 115 123 120 116 112 111 110 112 109 106 105 100 100 98 98 100 98 98 100 102 104 107 109 110
193 115 218 210 207 235 205 151 142 122 135 201 171 162 169 175 177 163 168 151 153 184 164 185 215 166 174 150 129 115 144 173 167 164 162 161 160 161 163 163 169 173 175 175 171 171 174 178 183 180 178 180 172 162 155 147 143 140 138 138 142 145 136 132 144 146 147 137 122 124 127 123 114 116 126 128 122 121 124 121 119 113 108 106 102 101 99 102 103 99 103 103 102 105 109 112 115
185 141 209 199 218 350 108 146 135 138 167 177 148 141 165 177 184 172 166 145 160 185 172 177 174 254 203 116 113 135 164 173 170 167 163 163 161 161 164 163 169 174 176 175 174 177 178 179 184 185 184 187 182 172 168 161 157 153 147 143 146 153 149 139 141 146 152 152 140 135 136 134 127 120 127 133 129 137 145 135 125 116 109 110 108 107 104 108 108 102 105 105 104 107 112 117 119
133 150 237 156 63 108 190 168 151 193 157 136 120 135 173 192 187 161 162 176 181 169 88 134 186 250 216 136 153 168 166 166 169 166 163 164 160 161 164 164 168 174 177 177 179 181 182 182 183 187 188 189 186 181 179 174 170 165 155 150 151 158 162 153 143 135 144 157 153 145 144 142 137 127 130 140 144 152 158 143 128 121 116 128 129 117 115 114 109 106 107 110 113 116 120 122 124
141 141 30 130 145 183 202 305 146 210 145 134 140 147 175 211 18 174 179 203 163 71 49 148 240 267 239 180 152 149 155 158 165 163 162 163 159 160 160 163 168 173 179 179 185 184 184 184 182 188 190 189 188 186 187 185 182 175 163 156 155 161 169 169 159 141 140 156 159 157 157 152 146 139 134 145 158 163 165 153 136 130 123 141 155 130 124 118 111 112 113 119 121 124 128 130 130
135 143 133 163 177 199 190 182 159 210 135 133 131 157 174 142 269 210 23 318 112 90 241 175 187 298 327 352 68 100 142 153 161 159 161 160 158 159 157 164 169 174 180 181 187 186 187 187 185 189 190 191 191 190 191 192 192 182 172 166 162 165 173 177 174 164 151 159 166 166 168 161 150 144 136 143 163 173 177 167 141 136 132 150 168 146 134 123 119 121 124 126 122 126 133 137 136
215 180 200 196 188 208 178 172 180 150 117 134 148 182 181 151 189 255 63 302 115 131 229 184 139 275 329 55 76 104 139 153 159 158 160 160 160 163 163 168 171 177 183 184 187 187 190 190 188 190 191 194 193 195 193 196 203 189 180 180 175 176 180 181 182 181 173 173 175 170 168 161 149 144 144 148 167 181 187 180 151 143 147 161 166 151 140 130 129 131 131 126 121 129 136 141 141
212 183 204 205 178 192 177 173 176 38 127 154 170 190 194 165 161 178 167 166 119 158 208 215 207 233 235 74 122 142 151 160 163 164 165 165 166 169 171 174 176 181 184 186 189 190 192 192 192 193 194 195 195 197 195 200 206 193 188 192 189 189 188 187 187 189 188 186 187 182 172 167 159 153 155 154 168 182 189 188 171 159 160 168 169 156 145 140 144 141 133 127 129 139 143 148 149
157 131 212 208 160 126 170 170 153 17 98 145 164 188 214 183 155 173 195 162 155 205 206 211 230 215 192 187 155 154 161 167 170 173 173 175 176 175 177 179 181 184 186 189 190 192 193 194 194 195 197 197 197 198 198 204 205 193 191 197 197 195 192 195 196 194 197 196 195 189 179 181 172 168 169 163 173 184 192 196 189 180 174 174 174 164 158 157 157 148 134 133 143 150 154 159 162
130 192 217 177 105 107 117 214 143 74 53 151 156 161 222 214 139 173 194 160 184 221 211 200 220 217 192 167 155 164 169 175 179 182 183 185 184 184 184 183 185 186 187 190 191 194 195 196 197 198 199 198 200 200 199 203 200 195 195 198 199 197 194 197 200 201 202 201 200 193 192 199 187 185 186 170 174 181 192 204 203 196 187 183 176 168 179 177 162 148 140 148 163 167 171 174 177
144 209 226 98 156 161 127 213 57 58 313 178 143 144 188 150 161 185 171 180 214 227 225 219 223 213 186 158 156 170 175 182 187 190 191 192 192 192 191 188 188 188 189 191 194 196 196 198 200 202 202 201 203 201 200 201 199 198 200 202 199 198 198 197 200 205 208 206 204 201 204 209 198 197 197 178 174 176 181 191 199 193 188 190 180 171 187 185 170 159 159 172 185 187 189 195 199
148 188 6 71 196 151 97 81 66 74 269 168 147 153 160 130 181 196 188 211 224 205 221 248 261 225 167 155 158 171 181 189 191 196 198 197 197 197 196 193 191 192 193 194 196 198 198 200 201 203 205 203 205 204 201 201 202 203 203 205 202 202 203 199 199 205 211 210 209 209 210 212 205 204 202 191 186 188 187 182 186 187 188 193 188 189 194 191 191 181 180 191 201 204 206 214 218
189 167 63 106 212 69 84 85 108 177 189 165 154 139 130 156 194 176 217 229 118 74 67 353 321 349 138 144 157 173 185 192 195 200 201 201 201 200 197 194 193 195 197 198 197 198 199 201 202 203 205 205 207 207 206 205 206 207 208 209 205 204 205 206 204 203 211 212 213 214 212 213 210 209 209 206 199 196 200 198 195 194 193 197 196 200 208 212 205 194 198 209 215 219 224 230 233
238 159 141 157 18 37 57 75 127 213 212 143 114 123 145 193 195 92 233 235 162 106 69 10 3 147 144 150 167 181 188 195 200 202 203 206 206 205 203 200 199 198 201 202 199 201 201 201 202 202 204 206 207 208 210 211 210 210 213 214 211 209 206 209 210 205 208 211 215 217 216 217 214 214 214 213 210 204 212 216 215 215 211 213 214 216 224 226 218 209 212 221 226 229 234 238 240
234 155 141 158 75 70 69 101 131 172 215 94 143 158 135 255 63 218 239 230 172 109 17 74 130 144 168 175 178 183 190 199 203 204 206 210 212 212 213 211 208 205 207 206 203 206 205 202 202 203 205 205 207 210 212 213 213 213 215 216 216 216 212 211 213 211 211 209 214 217 218 220 218 219 219 218 218 215 222 227 226 228 228 231 232 231 234 232 226 222 223 226 230 234 238 240 242
188 133 134 143 108 79 84 105 105 86 111 138 179 146 67 28 351 260 238 179 70 311 348 133 161 170 186 187 186 187 192 200 200 203 206 209 212 214 216 215 214 211 211 209 207 209 208 207 206 206 206 206 208 211 213 215 215 215 217 220 220 219 216 214 214 213 214 211 214 218 219 222 223 223 224 225 226 226 232 234 233 234 236 240 239 239 239 235 231 230 231 233 235 237 240 243 243
112 114 108 109 103 79 60 104 89 87 97 337 202 137 81 104 272 250 191 59 9 235 181 164 206 197 194 189 192 194 197 201 197 199 203 208 212 214 214 214 215 215 212 211 211 211 210 210 209 209 209 208 209 211 215 217 218 219 219 222 224 223 220 217 217 218 219 218 215 215 216 222 227 228 230 233 233 233 237 237 238 240 241 244 242 243 242 238 235 234 234 236 238 239 243 247 244
120 128 108 84 96 99 67 108 93 310 113 9 245 138 104 122 232 241 89 36 354 213 190 175 217 216 203 194 195 199 204 201 194 198 203 207 209 210 211 210 212 213 213 214 212 212 212 211 212 212 212 212 212 212 216 218 221 224 221 221 226 227 226 221 219 219 220 222 224 225 223 224 228 233 235 236 236 237 240 240 242 244 244 247 246 246 247 243 239 238 237 237 239 242 245 248 245
127 143 125 111 143 119 61 94 65 306 119 27 289 208 219 195 220 205 76 354 356 240 210 183 213 223 216 208 206 208 207 196 194 205 209 210 209 208 210 209 208 210 213 214 213 214 214 214 215 213 215 217 216 214 217 221 225 229 228 225 225 227 230 228 227 229 227 225 228 229 230 231 231 235 238 240 240 239 242 243 245 247 249 252 251 251 251 247 244 243 242 240 240 242 244 247 246
136 155 151 143 188 168 65 44 267 221 108 340 260 250 243 205 220 119 69 333 322 257 220 196 212 213 219 217 218 219 208 202 207 214 213 212 211 211 213 209 207 208 209 210 213 214 212 213 215 215 216 217 219 218 219 223 227 233 235 231 227 227 229 229 232 236 238 238 237 234 234 236 236 238 239 241 244 246 248 247 246 247 249 252 253 253 252 248 247 246 244 241 240 242 243 246 246
137 139 201 172 203 177 84 38 237 181 138 320 226 247 263 210 180 79 48 338 276 260 235 207 215 212 223 215 225 230 216 215 219 222 219 216 217 217 217 214 210 209 209 210 211 211 211 212 211 215 217 217 219 219 220 223 226 234 238 237 235 233 232 232 233 235 240 244 246 247 246 245 247 249 245 243 247 254 256 253 250 249 249 251 252 254 252 249 248 248 248 243 241 242 241 244 245
127 162 183 188 218 173 98 65 313 202 136 200 213 239 260 259 100 84 46 37 204 252 254 253 246 229 226 220 228 234 230 228 230 231 228 224 225 226 225 221 218 217 216 214 213 210 210 212 212 215 219 218 219 220 222 223 225 232 239 243 242 241 239 237 237 239 243 247 248 252 254 251 251 252 249 245 247 251 254 255 254 253 250 246 248 253 252 249 248 248 249 245 242 242 240 241 242
189 228 178 166 201 184 143 118 358 340 134 194 226 260 260 276 33 90 64 47 91 261 260 263 260 246 233 230 232 235 240 236 235 236 232 229 230 231 231 228 226 227 224 221 219 216 213 213 215 217 219 219 220 224 225 224 224 228 234 240 242 243 243 242 244 246 248 250 249 248 248 249 251 250 246 242 241 244 247 250 250 250 248 243 241 248 250 249 248 246 248 247 242 240 240 243 243
179 238 156 157 203 188 181 149 73 336 216 205 203 247 253 227 133 196 187 180 308 280 265 264 261 261 247 237 241 238 240 239 238 236 231 232 235 237 237 235 233 234 233 229 226 225 220 215 215 219 220 219 220 224 227 227 227 227 229 232 234 237 240 243 246 246 244 244 245 244 244 246 249 249 247 242 238 239 244 246 246 247 248 244 238 241 245 246 247 246 245 247 243 237 240 244 244
178 181 162 146 213 220 220 158 114 237 218 216 197 230 253 253 248 250 215 175 262 271 269 274 267 267 263 254 252 242 241 244 241 235 233 237 241 243 242 241 240 239 239 237 233 231 228 221 217 221 222 220 221 222 225 227 229 231 233 235 237 237 238 239 240 240 242 243 243 242 245 246 246 247 248 245 240 237 239 244 246 247 246 243 238 237 239 240 243 244 243 244 244 240 240 242 243
171 166 154 149 172 212 231 93 46 269 210 220 221 232 255 260 261 265 241 160 253 271 270 270 260 255 255 249 250 242 240 244 241 243 246 246 246 246 246 245 244 243 242 241 237 234 232 228 223 221 222 220 221 222 223 224 225 229 231 233 235 234 236 241 242 242 243 244 241 240 242 243 244 246 245 245 245 242 242 243 245 246 244 239 236 236 238 238 241 245 243 242 243 241 240 240 242
146 143 145 158 171 172 142 84 57 315 232 221 228 246 262 267 267 269 258 189 249 265 262 259 252 243 238 237 243 239 239 248 267 264 255 249 248 248 247 245 244 243 243 241 239 237 236 232 228 226 222 218 219 221 221 222 222 223 224 225 227 228 233 238 239 238 237 237 238 240 244 246 246 245 243 247 251 250 250 247 246 247 245 239 237 239 240 241 244 245 243 241 241 242 242 242 242
132 151 155 164 212 155 82 74 80 31 245 214 185 256 259 259 263 265 258 239 243 249 251 254 253 248 239 235 243 244 251 268 278 264 254 247 249 248 244 243 239 238 239 238 238 238 236 233 232 231 227 221 219 219 221 224 224 222 223 224 227 229 230 230 228 230 233 237 241 242 246 249 248 246 249 255 254 251 251 250 248 248 248 244 241 242 242 243 245 244 241 239 240 242 244 245 243
126 140 153 163 188 145 117 125 104 58 249 231 75 267 264 259 261 260 249 245 241 236 249 264 270 262 255 248 250 261 271 274 263 255 250 245 249 246 242 241 238 236 236 238 238 236 235 234 235 233 230 228 223 219 220 224 226 225 226 227 228 230 232 232 232 235 241 246 247 245 245 248 249 250 253 252 250 247 244 245 247 248 252 251 246 245 245 244 246 245 241 238 238 240 242 244 243
130 133 153 156 141 171 189 156 136 56 318 316 311 277 276 261 256 252 239 248 263 259 260 265 266 260 263 272 281 281 273 272 266 257 250 243 249 246 241 240 240 239 237 238 238 235 234 237 237 234 232 231 227 224 222 223 226 226 228 230 230 232 236 240 242 243 247 249 250 248 248 249 249 251 251 250 250 247 244 246 246 247 255 256 250 249 248 246 247 246 242 238 236 236 237 242 244
215 204 162 133 166 188 31 115 133 137 180 316 303 276 271 244 242 246 221 265 266 259 252 245 243 249 261 277 275 259 258 266 267 263 255 243 248 249 244 242 242 240 238 238 238 237 237 238 239 236 234 234 231 229 225 220 223 224 226 228 230 234 238 242 242 242 243 244 246 247 249 249 245 244 247 251 255 252 249 250 244 243 253 253 247 246 246 247 247 245 242 241 240 237 238 242 243
205 233 199 153 167 149 104 123 145 198 200 81 333 268 257 138 234 238 210 339 251 209 226 242 238 243 253 263 267 254 252 258 259 263 265 254 252 253 251 246 242 239 238 237 236 237 237 237 238 238 236 236 235 232 225 216 216 220 222 222 222 227 234 239 240 239 239 240 242 244 248 249 245 243 247 254 259 255 250 248 243 244 250 249 246 246 245 245 245 243 243 244 244 243 240 237 238
194 218 165 130 137 131 132 151 168 227 222 69 348 263 261 302 254 217 55 309 273 225 205 254 280 263 266 267 286 295 280 271 263 262 263 254 246 243 237 226 226 231 232 232 231 230 229 230 232 233 233 232 233 231 221 210 211 215 217 218 219 222 229 236 239 240 240 242 244 245 247 247 245 247 249 251 253 251 251 252 251 254 254 251 252 253 250 248 246 245 246 246 245 243 237 230 233
181 204 137 131 134 138 146 155 170 344 23 154 132 299 280 275 264 136 15 289 265 219 170 122 101 132 10 332 330 327 309 301 282 264 251 236 224 206 190 184 193 207 215 219 220 219 218 219 222 222 224 226 227 221 210 204 208 211 214 217 220 223 228 235 240 241 240 242 246 246 247 246 246 247 248 248 248 250 255 255 252 254 254 254 254 254 252 250 245 243 243 245 244 243 240 237 237
111 231 134 121 119 119 133 143 134 62 316 220 160 46 271 261 243 124 3 280 256 216 137 128 122 80 10 1 3 355 347 327 288 288 11 91 134 165 157 144 149 158 171 188 196 200 201 200 202 204 207 214 213 205 200 202 205 207 210 214 218 224 230 236 240 241 242 244 248 250 252 252 251 251 251 252 251 251 254 254 251 251 253 253 250 248 249 248 245 243 243 247 249 248 246 244 240
142 162 109 88 81 76 89 113 116 108 253 230 138 57 264 263 245 190 131 264 253 231 116 137 150 67 356 6 9 7 20 20 2 357 9 49 81 124 128 121 121 128 136 150 163 171 174 173 175 180 188 195 196 195 199 202 203 205 209 213 219 226 232 238 242 244 247 251 254 255 256 256 256 256 256 256 255 252 253 255 256 257 257 256 250 246 247 248 248 247 247 251 253 250 248 245 241
144 157 110 93 78 63 75 46 84 178 242 217 80 13 273 269 256 203 193 236 242 157 132 151 142 85 42 25 16 17 25 26 35 50 65 71 86 105 110 111 111 115 121 127 135 141 144 148 154 161 168 175 181 188 195 201 205 208 212 217 222 229 236 242 247 252 255 257 260 260 260 260 260 260 260 261 260 256 253 253 253 254 255 255 251 250 254 255 252 249 250 252 250 247 247 246 243
148 161 129 113 87 88 118 66 121 222 230 114 57 331 247 241 243 149 318 287 251 172 148 143 123 72 47 31 23 22 13 18 58 75 84 85 93 98 99 103 108 111 114 117 123 127 131 136 142 149 154 160 168 176 186 197 206 212 219 225 230 237 242 247 252 257 259 260 263 262 261 262 264 263 261 261 261 260 257 256 253 252 253 254 255 256 260 263 261 258 258 257 253 249 247 243 242
200 158 151 147 132 155 190 180 195 232 236 76 36 284 235 245 256 275 275 250 222 221 176 124 85 46 39 31 23 19 16 30 67 79 84 86 86 89 93 98 104 108 110 114 118 121 126 130 134 140 144 150 158 166 177 189 201 212 223 231 242 249 251 254 257 261 263 263 265 264 262 262 265 265 263 264 265 264 262 261 259 257 255 255 256 257 258 261 263 262 261 259 253 249 246 241 242
188 164 164 169 150 167 197 177 232 261 279 66 346 275 249 257 264 258 254 232 181 212 233 292 340 341 344 355 346 346 49 58 71 81 81 79 78 79 83 90 98 104 108 112 117 120 124 126 129 133 135 138 144 149 159 169 183 200 216 230 243 251 256 259 260 263 264 264 267 267 265 266 266 265 267 269 270 269 267 265 265 263 260 258 257 257 257 257 259 261 260 258 254 252 249 246 245
191 178 160 181 170 186 196 176 212 223 101 92 150 229 228 217 104 233 243 21 62 228 278 303 281 290 298 303 282 176 100 92 87 86 82 74 75 78 80 89 96 102 107 111 114 117 120 120 122 124 124 127 132 137 144 152 169 186 201 217 231 242 253 261 265 270 274 274 274 271 268 268 268 269 271 273 275 275 273 270 269 267 265 263 259 258 258 256 256 256 257 256 255 253 251 251 252
209 355 37 211 189 134 118 82 127 105 75 156 182 241 251 264 288 250 174 245 251 216 164 195 234 239 206 178 149 131 113 109 103 97 93 81 76 78 81 89 95 99 103 106 110 114 117 120 123 127 130 135 141 147 154 162 172 181 191 204 220 238 252 265 274 280 284 283 280 277 277 275 274 277 279 280 280 279 276 273 271 271 270 268 265 261 260 259 257 255 255 254 252 252 252 253 255
150 167 185 204 44 98 116 111 57 36 258 197 166 246 261 276 278 257 142 174 178 160 161 162 155 143 148 147 135 128 118 113 105 95 94 89 84 81 80 85 92 97 99 102 108 113 117 120 123 126 131 136 142 148 153 157 161 163 164 169 182 220 250 272 283 287 287 288 289 289 289 288 286 287 288 287 286 283 281 279 276 275 275 274 273 270 266 264 262 260 259 257 256 256 256 255 254
143 179 173 137 49 55 128 172 102 156 246 213 164 239 249 227 247 54 111 160 164 165 154 136 144 150 147 145 138 131 122 115 107 97 94 91 88 83 81 84 90 96 99 100 104 107 109 111 111 113 116 121 126 130 132 133 133 132 128 125 131 150 251 303 305 308 309 309 313 311 308 307 304 301 297 294 292 290 287 286 283 280 278 277 275 274 272 270 267 265 264 262 261 260 258 257 256
346 202 152 123 197 204 178 185 167 186 229 238 201 244 262 221 215 13 169 182 182 178 152 143 157 157 153 153 147 138 131 129 122 111 103 92 86 81 80 85 92 99 101 101 102 102 103 102 101 101 102 104 107 109 111 112 112 111 108 106 103 89 63 34 10 0 355 350 344 334 325 320 317 312 308 303 300 297 295 291 288 285 282 279 276 275 275 273 270 268 267 266 264 261 258 258 257
38 160 145 353 274 216 186 171 177 202 208 225 218 209 237 218 211 226 215 193 183 174 158 164 168 161 160 157 151 152 149 141 131 120 112 98 88 83 85 93 99 102 103 103 102 101 100 99 98 97 96 96 98 99 100 100 99 99 98 95 87 74 64 51 39 32 24 14 4 353 341 333 329 324 318 313 308 305 303 298 293 290 288 284 281 279 278 277 275 272 269 268 268 265 261 260 260
152 169 170 180 176 31 238 174 91 226 200 204 232 239 235 206 203 219 213 165 168 172 168 177 171 162 159 154 155 157 149 145 135 125 116 104 97 90 90 97 100 101 101 101 101 100 99 99 98 97 97 96 95 94 94 93 92 93 91 89 82 74 67 60 51 45 38 29 20 9 359 351 344 339 330 323 319 313 308 302 297 293 290 288 285 282 281 280 279 277 274 272 271 269 266 265 264
171 188 185 183 159 138 192 200 152 0 245 198 221 263 255 155 188 229 206 100 181 192 181 177 168 164 157 151 161 159 149 149 138 125 116 104 100 94 92 96 97 97 97 97 98 98 97 97 97 96 95 94 94 93 91 90 89 88 86 84 81 76 69 64 58 52 45 39 32 25 18 10 3 358 349 340 332 324 317 311 304 300 296 292 288 285 283 281 280 280 279 276 275 272 270 268 267